Regional Weather Roundup
Issued by NWS

Home | Current Version | Previous Version | Graphics & Text | Print | Product List | Glossary On
Versions: 1 2 3 4 5 6 7 8 9 10 11 12 13 14 15 16 17 18 19 20 21 22 23 24 25 26 27 28 29 30 31 32 33 34 35 36 37 38 39 40 41 42 43 44 45 46 47 48 49 50
000
ASUS43 KMPX 271401
RWRMN
WEATHER ROUNDUP FOR MINNESOTA
NATIONAL WEATHER SERVICE TWIN CITIES/CHANHASSEN MN
800 AM CST FRI FEB 27 2015


NOTE: "FAIR" INDICATES FEW OR NO CLOUDS BELOW 12,000 FEET WITH NO
SIGNIFICANT WEATHER AND/OR OBSTRUCTIONS TO VISIBILITY. N/A MEANS
CURRENT SKY AND/OR WEATHER CONDITIONS ARE NOT AVAILABLE.

MNZ060>063-068>070-271500-
   Twin Cities Metro

CITY           SKY/WX    TMP DP  RH WIND       PRES   REMARKS
TWIN CITIES    FAIR      -5 -10  79 SW6       30.55R WCI -18
ST PAUL        SUNNY     -2  -8  76 W3        30.57R
CRYSTAL        SUNNY     -1  -7  75 CALM      30.53R
BLAINE         SUNNY      0  -6  78 W5        30.52R WCI -10
EDEN PRAIRIE   SUNNY     -7 -12  79 SW6       30.54R WCI -20
SOUTH ST PAUL  SUNNY     -2  -9  74 W3        30.55S
LAKE ELMO      FAIR      -6  -9  84 SW3       30.54R
$$
MNZ001>005-007-008-013>017-022>024-027-028-271500-
   Northwest Minnesota

CITY           SKY/WX    TMP DP  RH WIND       PRES   REMARKS
BEMIDJI        PTCLDY   -11 -15  82 SW5       30.39S WCI -23
HALLOCK        PTCLDY   -15 -20  76 S9        30.40S WCI -33
ROSEAU         PTCLDY    -9 -15  77 MISG      30.37S
WARROAD        MOCLDY    -9 -17  70 SW3       30.36S
THIEF RVR FALL PTCLDY   -13 N/A N/A S8        30.39F WCI -30
CROOKSTON      FAIR     -11 -17  77 S7        30.46S WCI -26
FOSSTON        MOCLDY   -17 -20  83 S6        30.42S WCI -31
DETROIT LAKES  PTCLDY    -9 -13  84 CALM      30.44S
MOORHEAD       PTCLDY    -8 -11  84 S5        30.49S WCI -19
PARK RAPIDS    MOCLDY   -12 -16  82 CALM      30.41S
MAHNOMEN       FAIR     -12 -16  80 S7        30.43S WCI -27
$$
MNZ006-009>011-018-025>026-271500-
   North Central Minnesota

CITY           SKY/WX    TMP DP  RH WIND       PRES   REMARKS
BAUDETTE       MOCLDY   -14 -19  79 SW6       30.35S WCI -28
FLAG ISLAND    MOCLDY   -15 -18  84 S3        30.34R
INTL FALLS     PTCLDY   -16 -20  82 SW5       30.37R WCI -29
WASKISH        MOCLDY    -8 -11  84 SW7       30.38S WCI -22
BIG FORK       MOCLDY   -20 -27  69 CALM      30.37F
LONGVILLE      PTCLDY   -17 -22  76 SW3       30.42S
GRAND RAPIDS   MOCLDY    -9 -11  92 CALM      30.38R
CRANE LAKE     PTCLDY   -26 -31  75 CALM      30.40S
ORR            PTCLDY   -13 -18  77 CALM      30.34R
COOK           PTCLDY   -18 -24  76 CALM      30.37S
WALKER         FAIR     -14 -18  80 SW3       30.40S
$$
MNZ012-019>021-037-271500-
   Northeast Minnesota

CITY           SKY/WX    TMP DP  RH WIND       PRES   REMARKS
DULUTH         MOSUNNY   -8 -14  74 W7        30.39R WCI -23
ELY            PTCLDY   -15 -18  84 SW3       30.36R
HIBBING        PTCLDY   -19 -26  70 CALM      30.38S
EVELETH        MOCLDY   -15 -20  76 SW3       30.38S
DULUTH HARBOR  MOSUNNY   -6 -11  77 CALM      30.50R
TWO HARBORS    MOSUNNY   -2 -11  65 NW3       30.39S
SILVER BAY     MOSUNNY   -4 -13  65 W6        30.38R WCI -16
GRAND MARAIS     N/A      2 -11  54 NW3       30.41R
G MARAIS ARPRT MOSUNNY   -9 -17  70 CALM      30.27R
$$
MNZ029>031-032-039>041-046>048-054>057-064-271500-
   West Central Minnesota

CITY           SKY/WX    TMP DP  RH WIND       PRES   REMARKS
FERGUS FALLS   CLEAR     -9 -15  77 SW3       30.53S
WHEATON        CLEAR    -11 -17  77 CALM      30.53R
MORRIS         CLEAR     -9 -15  77 SW3       30.49S
ALEXANDRIA     PTCLDY    -3 -15  56 W5        30.45S WCI -13
ELBOW LAKE     FAIR     -13 -17  82 CALM      30.48S
WADENA         MOCLDY   -11 -17  77 SW3       30.44R
GLENWOOD       PTCLDY    -9 -13  84 SW3       30.48R
APPLETON       CLEAR     -9 -15  77 W3        30.53S
BENSON         CLEAR     -9 -17  70 CALM      30.51R
ORTONVILLE     CLEAR     -8 -13  77 CALM      30.50F
MADISON        CLEAR     -8 -15  71 W3        30.52F
WILLMAR        FAIR      -9 -17  70 CALM      30.51S
$$
MNZ033>034-036-042>043-049>051-058-059-271500-
   Central Minnesota

CITY           SKY/WX    TMP DP  RH WIND       PRES   REMARKS
ST CLOUD       CLEAR     -5 -10  79 CALM      30.50S
SAUK CENTRE    FAIR      -8 -13  80 SW3       30.48S
PAYNESVILLE    CLEAR    -10 -14  83 SW5       30.50S WCI -22
AITKIN         PTCLDY    -6 -11  77 SW3       30.43S
PINE RIVER     PTCLDY   -17 -20  83 CALM      30.46R
BRAINERD       PTCLDY   -13 -17  82 S3        30.45S
STAPLES        PTCLDY   -11 -15  84 CALM      30.45R
LONG PRAIRIE   FAIR      -6  -9  84 CALM      30.46S
LITTLE FALLS   CLEAR     -9 -15  77 CALM      30.49S
LITCHFIELD     CLEAR     -8 -11  84 CALM      30.51S
MAPLE LAKE     CLEAR     -3  -7  82 W5        30.52S WCI -14
$$
MNZ037-044-045-052-053-271500-
   East Central Minnesota

CITY           SKY/WX    TMP DP  RH WIND       PRES   REMARKS
PRINCETON        N/A     -8 -11  84 CALM      30.50R
MORA           PTCLDY    -8 -15  71 CALM      30.50S
CAMBRIDGE      PTCLDY    -6 -15  65 CALM      30.50R
RUSH CITY      MOSUNNY   -6 -10  81 CALM      30.51S
MOOSE LAKE     PTCLDY    -8 -15  71 CALM      30.45R
HINCKLEY       FAIR      -9 -13  84 CALM      30.48S
CLOQUET        MOSUNNY   -9 -15  77 W6        30.41S WCI -23
MCGREGOR       CLEAR     -6  -9  84 CALM      30.44S
$$
MNZ071>073-080-081-089-090-097-098-271500-
   Southwest Minnesota

CITY           SKY/WX    TMP DP  RH WIND       PRES   REMARKS
MONTEVIDEO     CLEAR     -6  -9  84 W3        30.53F
GRANITE FALLS  CLEAR     -9 -14  80 SW5       30.55S WCI -21
CANBY          CLEAR     -5 -10  77 W5        30.53S WCI -16
MARSHALL       CLEAR     -8 -11  84 SW6       30.53R WCI -21
REDWOOD FALLS  FAIR      -7 -13  75 W6        30.55S WCI -20
OLIVIA         CLEAR    -11 -15  84 SW5       30.53S WCI -23
PIPESTONE      PTCLDY   -15 -20  76 CALM      30.48S
WINDOM         PTCLDY   -11 -17  77 CALM      30.51R
WORTHINGTON    PTCLDY    21 -22  14 SW7       30.52R WCI  13
JACKSON        PTCLDY    -9 -15  77 SW5       30.52R WCI -21
TRACY          CLEAR     -6 -12  76 SW7       30.52R WCI -20
SLAYTON        PTCLDY    -6 -12  74 CALM      30.49S
$$
MNZ065>067-074>077-082>085-091>093-271500-
   South Central Minnesota

CITY           SKY/WX    TMP DP  RH WIND       PRES   REMARKS
MANKATO        MOSUNNY   -9 -18  64 W3        30.55R
NEW ULM        CLEAR    -17 -22  76 CALM      30.55S
ST JAMES       CLEAR     -9 -15  77 SW6       30.56R WCI -23
FAIRMONT       PTCLDY    -8 -13  77 CALM      30.53R
GLENCOE        PTCLDY    -8 -12  81 SW5       30.53S WCI -19
FARIBAULT      MOSUNNY  -11 -17  77 CALM      30.54R
OWATONNA       MOSUNNY  -11 -18  70 CALM      30.54R
WASECA         PTSUNNY  -15 -22  70 CALM      30.56R
ALBERT LEA       N/A     -9 -13  84 CALM      30.52R
$$
MNZ078>079-086>088-094>096-271500-
   Southeast Minnesota

CITY           SKY/WX    TMP DP  RH WIND       PRES   REMARKS
ROCHESTER      MOSUNNY  -12 -17  78 W10       30.51R WCI -31
RED WING       SUNNY     -8 -13  77 CALM      30.56R
STANTON        MOSUNNY   -9 -15  74 S5        30.55R WCI -20
DODGE CENTER   MOSUNNY  -17 -20  83 W7        30.50R WCI -33
WINONA         SUNNY     -8 -13  77 CALM      30.59R
AUSTIN         MOSUNNY  -11 -17  77 NW5       30.52R HAZE    WCI -23
PRESTON        MOSUNNY   -9 -14  80 W6        30.52R WCI -23
$$
ABBREVIATIONS USED IN REMARKS
   TC - TEMPERATURES IN CELSIUS
  WCI - WIND CHILL INDEX
   HX - HEAT INDEX
  VSB - VISIBILITY
$$



USA.gov is the U.S. government's official web portal to all federal, state and local government web resources and services.